#timestamp,LO_Frequency,Hit,StdDev 
1514725215.3,286047003.9,N
1514725235.2,286047001.6,N
1514725255.0,286046999.7,N
1514725255.9,286046999.7,N
1514725275.7,286047000.2,N
1514725295.6,286047004.3,N
1514725315.4,286047003.5,N
1514725335.3,286047002.1,N
1514725355.1,286047003.6,N
1514725375.8,286047003.4,N
1514725395.7,286047003.7,N
1514725415.5,286047005.9,N
1514725435.4,286047004.0,N
1514725455.2,286047003.6,N
1514725475.0,286047005.4,N
1514725475.9,286047005.4,N
1514725495.8,286047003.5,N
1514725515.6,286047004.8,N
1514725535.4,286047005.0,N
1514725555.3,286047006.5,N
1514725575.1,286047006.7,N
1514725595.9,286047007.2,N
1514725615.7,286047003.3,N
1514725635.5,286046999.7,N
1514725655.4,286047000.4,N
1514725675.2,286047000.6,N
1514725695.0,286046999.3,N
1514725695.9,286046999.3,N
1514725715.8,286046994.9,N
1514725735.6,286046995.7,N
1514725755.5,286046997.7,N
1514725775.3,286046996.9,N
1514725795.1,286046997.3,N
1514725815.9,286046999.3,N
1514725835.7,286046999.1,N
1514725855.6,286046996.5,N
1514725875.4,286046999.1,N
1514725895.2,286047001.2,N
1514725915.1,286047001.0,N
1514725916.0,286047001.0,N
1514725935.8,286046998.8,N
1514725955.6,286047000.9,N
1514725975.5,286047000.8,N
1514725995.3,286046998.2,N
1514726015.2,286046998.9,N
1514726035.9,286046999.3,N
1514726055.7,286046996.9,N
1514726075.6,286046994.9,N
1514726095.4,286046995.6,N
1514726115.3,286046996.1,N
1514726135.1,286046996.8,N
1514726136.0,286046996.8,N
1514726155.8,286047003.2,N
1514726175.7,286047010.9,Y
1514726195.5,286047010.0,P
1514726215.3,286047010.1,N
1514726235.2,286047005.0,N
1514726255.0,286047003.2,N
1514726255.9,286047003.2,N
1514726275.8,286047002.5,N
1514726295.6,286047001.8,N
1514726315.4,286047004.2,N
1514726335.3,286047003.8,N
1514726355.1,286047004.1,N
1514726375.8,286047000.2,N
1514726395.7,286046999.4,N
1514726415.5,286046996.9,N
1514726435.4,286046998.4,N
1514726455.2,286047001.0,N
1514726475.0,286047000.4,N
1514726475.9,286047000.4,N
1514726495.8,286046998.9,N
1514726515.6,286047000.5,N
1514726535.4,286047000.5,N
1514726555.3,286047002.5,N
1514726575.1,286047003.1,N
1514726595.9,286047005.6,N
1514726615.7,286047004.2,N
1514726635.5,286047000.0,N
1514726655.4,286046998.5,N
1514726675.2,286046996.7,N
1514726695.0,286046994.9,N
1514726695.9,286046994.9,N
1514726715.8,286046995.2,N
1514726735.6,286046995.8,N
1514726755.5,286046995.0,N
1514726775.3,286046995.0,N
1514726795.1,286046995.7,N
1514726815.9,286046997.7,N
1514726835.7,286046997.2,N
1514726855.6,286046998.7,N
1514726875.4,286046996.7,N
1514726895.2,286046999.6,N
1514726915.1,286046997.9,N
1514726916.0,286046997.9,N
1514726935.8,286046995.6,N
1514726955.6,286046995.3,N
1514726975.5,286046996.2,N
1514726995.3,286046995.8,N
1514727015.2,286046995.6,N
1514727035.9,286046997.9,N
1514727055.7,286046997.4,N
1514727075.6,286046997.4,N
1514727095.4,286046997.2,N
1514727115.2,286046996.6,N
1514727135.1,286046999.5,N
1514727136.0,286046999.5,N
1514727155.8,286046996.7,N
1514727175.7,286046995.8,N
1514727195.5,286046995.9,N
1514727215.3,286046997.6,N
1514727235.2,286046994.9,Y
1514727255.0,286046998.2,P
1514727255.9,286046998.2,N
1514727275.8,286046999.4,N
1514727295.6,286046996.7,Y
1514727315.4,286046998.3,P
1514727335.3,286046999.0,P
1514727355.1,286046998.3,P
1514727375.8,286046998.4,Y
1514727395.7,286047000.1,P
1514727415.5,286047000.8,N
1514727435.4,286047000.3,N
1514727455.2,286047000.2,N
1514727475.0,286047001.2,N
1514727475.9,286047001.2,N
1514727495.8,286047001.0,N
1514727515.6,286047000.8,N
1514727535.4,286047000.5,N
1514727555.3,286047000.9,N
1514727575.1,286047002.8,Y
1514727595.9,286046998.2,P
1514727615.7,286046996.6,N
1514727635.5,286046996.6,N
1514727655.4,286046997.9,N
1514727675.2,286046998.0,N
1514727695.1,286046999.1,N
1514727696.0,286046999.1,N
1514727715.8,286046998.9,N
1514727735.6,286047000.0,N
1514727755.5,286047011.9,Y
1514727775.3,286047015.4,P
1514727795.2,286047011.0,N
1514727815.9,286047009.4,N
1514727835.7,286047010.8,N
1514727855.6,286047008.4,N
1514727875.4,286047008.9,N
1514727895.2,286047013.6,N
1514727915.1,286047011.6,N
1514727916.0,286047011.6,N
1514727935.8,286047007.6,N
1514727955.7,286047002.8,N
1514727975.5,286046999.5,N
1514727995.3,286046995.7,N
1514728015.2,286046993.4,N
1514728035.0,286046994.8,N
1514728036.0,286046994.8,N
1514728055.8,286046994.6,N
1514728075.6,286046994.5,N
1514728095.5,286046991.8,N
1514728115.3,286046993.1,N
1514728135.2,286046990.7,N
1514728155.0,286046989.2,N
1514728155.9,286046989.2,N
1514728175.7,286046985.7,N
1514728195.6,286046984.8,N
1514728215.4,286046982.2,N
1514728235.3,286046982.4,N
1514728255.1,286046982.3,N
1514728256.0,286046982.3,N
1514728275.8,286046985.1,N
1514728295.7,286046985.5,N
1514728315.5,286046985.1,N
1514728335.4,286046982.1,N
1514728355.2,286046983.3,N
1514728375.0,286046983.0,N
1514728375.9,286046983.0,N
1514728395.8,286046984.7,N
1514728415.6,286046984.8,N
1514728435.5,286046984.5,N
1514728455.3,286046984.8,N
1514728475.1,286046985.0,N
1514728495.9,286046986.8,N
1514728515.7,286046984.6,Y
1514728535.5,286046999.0,P
1514728555.4,286047001.2,N
1514728575.2,286047001.1,N
1514728595.1,286047000.9,N
1514728596.0,286047000.9,N
1514728615.8,286047000.8,N
1514728635.6,286047001.1,N
1514728655.5,286047001.1,N
1514728675.3,286046999.0,N
1514728695.1,286046998.2,N
1514728715.9,286047001.0,N
1514728735.7,286047000.6,N
1514728755.6,286047002.3,N
1514728775.4,286047002.5,N
1514728795.2,286047002.3,N
